Location: Castifao
(42.5040°N, 9.1124°E)
Time: 07:37:10
(UTC+00:00)

SKYMED 2 - Pass Details

Date: 23 January 2020
Orbit: 621 x 623 km, 97.9° (Epoch: 18 February)

Event Time Altitude Azimuth Distance (km) Brightness Sun altitude
Rises 17:02:45 0° 19° (NNE) 2,911 6.6 -7.3°
Reaches altitude 10° 17:05:03 10° 27° (NNE) 1,999 5.8 -7.7°
Maximum altitude 17:09:12 42° 99° (E) 885 4.0 -8.4°
Drops below altitude 10° 17:13:18 10° 170° (S) 1,984 6.3 -9.1°
Sets 17:15:34 0° 178° (S) 2,885 7.2 -9.5°
